This is the latest recevied weather packets stored in our database for station/object OE3APM-13. If no packets are shown the sender has not sent any weather packets the latest 10 day(s).
| Time | Temp. | Humidity | Pressure | Rain* | Wind** | Luminosity | Snow |
|---|---|---|---|---|---|---|---|
| 1777699361 | 3.89° C | 94% | 1025.4 hPa | 0 mm | - | 225 W/m² | - |
| 1777699061 | 3.33° C | 94% | 1025.5 hPa | 0 mm | - | 207 W/m² | - |
| 1777698760 | 2.78° C | 94% | 1025.5 hPa | 0 mm | - | 190 W/m² | - |
| 1777698459 | 2.78° C | 93% | 1025.5 hPa | 0 mm | - | 174 W/m² | - |
| 1777698155 | 2.22° C | 94% | 1025.4 hPa | 0 mm | - | 158 W/m² | - |
| 1777697856 | 1.67° C | 93% | 1025.4 hPa | 0 mm | - | 142 W/m² | - |
| 1777697556 | 1.67° C | 93% | 1025.4 hPa | 0 mm | - | 127 W/m² | - |
| 1777697252 | 1.11° C | 93% | 1025.4 hPa | 0 mm | - | 111 W/m² | - |
| 1777696953 | 1.11° C | 92% | 1025.3 hPa | 0 mm | - | 97 W/m² | - |
| 1777696652 | 0.56° C | 92% | 1025.3 hPa | 0 mm | - | 83 W/m² | - |
| 1777696361 | 0.56° C | 91% | 1025.3 hPa | 0 mm | - | 58 W/m² | - |
| 1777696049 | 0.56° C | 91% | 1025.4 hPa | 0 mm | - | 58 W/m² | - |
| 1777695749 | 0.56° C | 90% | 1025.4 hPa | 0 mm | - | 25 W/m² | - |
| 1777695448 | 0.56° C | 90% | 1025.4 hPa | 0 mm | - | 7 W/m² | - |
| 1777695145 | 0.56° C | 90% | 1025.4 hPa | 0 mm | - | 5 W/m² | - |
| 1777694845 | 0.56° C | 90% | 1025.3 hPa | 0 mm | - | 0 W/m² | - |
| 1777694543 | 0.56° C | 90% | 1025.3 hPa | 0 mm | - | 0 W/m² | - |
| 1777694240 | 0.56° C | 90% | 1025.3 hPa | 0 mm | - | 0 W/m² | - |
| 1777693941 | 0.56° C | 90% | 1025.3 hPa | 0 mm | - | 0 W/m² | - |
| 1777693640 | 1.11° C | 90% | 1025.3 hPa | 0 mm | - | 0 W/m² | - |
| 1777693339 | 1.11° C | 91% | 1025.3 hPa | 0 mm | - | 0 W/m² | - |
| 1777693040 | 1.11° C | 91% | 1025.3 hPa | 0 mm | - | 0 W/m² | - |
| 1777692739 | 1.11° C | 91% | 1025.2 hPa | 0 mm | - | 0 W/m² | - |
| 1777692431 | 1.11° C | 91% | 1025.2 hPa | 0 mm | - | 0 W/m² | - |
| 1777692126 | 1.11° C | 91% | 1025.2 hPa | 0 mm | - | 0 W/m² | - |
* Rain latest hour (hover to see other rain measurements)
** Current wind speed in m/s (hover to see current wind gust speed)